Weather History for Kansas City, MO

Change the Weather History Date:

Sunday, April 28, 2013

  Actual Average Record
Temperature  
Mean Temperature 57 °F -  
Max Temperature 75 °F 67 °F 82 °F (2001)
Min Temperature 39 °F 49 °F 39 °F (2013)
Degree Days  
Heating Degree Days 8    
Growing Degree Days 7 (Base 50)    
Moisture  
Dew Point 46 °F    
Average Humidity 80    
Maximum Humidity 100    
Minimum Humidity 43    
Precipitation  
Precipitation 0.00 in - - ()
Sea Level Pressure  
Sea Level Pressure 29.93 in    
Wind  
Wind Speed 2 mph (SSW)    
Max Wind Speed 15 mph    
Max Gust Speed 22 mph    
Visibility 5 miles    
Events Fog    
Averages and records for this station are not official NWS values.
T = Trace of Precipitation, MM = Missing Value Source: NWS Daily Summary

Daily Weather History Graph

Daily Weather History Graph

Search for Another Location

Airport:

Trip Planner

Search our weather history database for the weather conditions in past years. The results will help you decide how hot, cold, wet, or windy it might be!

Date:

Astronomy

Apr. 28, 2013 Rise Set
Actual Time 6:23 AM CDT 8:08 PM CDT
Civil Twilight 5:54 AM CDT 8:37 PM CDT
Nautical Twilight 5:20 AM CDT 9:12 PM CDT
Astronomical Twilight 4:43 AM CDT 9:49 PM CDT
Moon 11:39 PM CDT 8:41 AM CDT
Length of Visible Light 14h 42m
Length of Day
13h 45m
Waning Gibbous, 88% of the Moon is Illuminated
Apr 28
Waning Gibbous
May 2
Last Quarter
May 9
New
May 17
First Quarter
May 24
Full

Hourly Weather History & Observations

Time (CDT) Temp. Windchill Dew Point Humidity Pressure Visibility Wind Dir Wind Speed Gust Speed Precip Events Conditions
12:54 AM 48.0 °F - 46.0 °F 93% 30.01 in 6.0 mi Calm Calm - N/A   Clear
1:47 AM 46.4 °F - 44.6 °F 93% 29.99 in 0.8 mi Calm Calm - N/A   Clear
1:54 AM 45.0 °F - 43.0 °F 93% 29.99 in 8.0 mi Calm Calm - N/A   Clear
2:01 AM 46.4 °F - 44.6 °F 93% 29.99 in 0.2 mi Calm Calm - N/A Fog Fog
2:24 AM 44.6 °F - 42.8 °F 93% 29.98 in 0.5 mi Calm Calm - N/A Fog Fog
2:32 AM 44.6 °F - 42.8 °F 93% 29.98 in 1.0 mi Calm Calm - N/A   Mist
2:40 AM 44.6 °F - 42.8 °F 93% 29.98 in 0.5 mi Calm Calm - N/A Fog Fog
2:54 AM 45.0 °F - 43.0 °F 93% 29.98 in 0.2 mi Calm Calm - N/A Fog Fog
3:03 AM 44.6 °F - 42.8 °F 93% 29.98 in 1.0 mi Calm Calm - N/A   Mist
3:06 AM 44.6 °F - 44.6 °F 100% 29.98 in 2.0 mi Calm Calm - N/A   Partly Cloudy
3:19 AM 44.6 °F - 42.8 °F 93% 29.98 in 0.8 mi Calm Calm - N/A   Clear
3:23 AM 42.8 °F - 42.8 °F 100% 29.97 in 0.5 mi Calm Calm - N/A Fog Fog
3:54 AM 42.1 °F 40.2 °F 41.0 °F 96% 29.96 in 0.2 mi South 3.5 mph - N/A Fog Fog
4:54 AM 42.1 °F - 41.0 °F 96% 29.99 in 0.5 mi Calm Calm - N/A Fog Fog
5:54 AM 41.0 °F - 39.9 °F 96% 29.99 in 0.5 mi Calm Calm - N/A Fog Fog
6:09 AM 42.8 °F - 39.2 °F 87% 29.98 in 0.8 mi Calm Calm - N/A   Clear
6:15 AM 41.0 °F - 39.2 °F 93% 29.98 in 0.5 mi Calm Calm - N/A Fog Fog
6:27 AM 39.2 °F - 39.2 °F 100% 29.98 in 0.2 mi Calm Calm - N/A Fog Fog
6:54 AM 41.0 °F - 41.0 °F 100% 29.99 in 0.2 mi Calm Calm - N/A Fog Fog
7:29 AM 44.6 °F - 42.8 °F 93% 29.98 in 1.0 mi Calm Calm - N/A   Mist
7:32 AM 44.6 °F - 42.8 °F 93% 29.99 in 2.5 mi Calm Calm - N/A   Partly Cloudy
7:39 AM 46.4 °F - 44.6 °F 93% 29.99 in 7.0 mi Calm Calm - N/A   Clear
7:54 AM 46.4 °F - 46.4 °F 100% 29.99 in 8.0 mi Calm Calm - N/A   Clear
8:54 AM 53.1 °F - 48.9 °F 86% 29.98 in 10.0 mi Variable 4.6 mph - N/A   Clear
9:54 AM 57.9 °F - 51.1 °F 78% 29.97 in 10.0 mi SSW 5.8 mph - N/A   Clear
10:54 AM 62.1 °F - 52.0 °F 70% 29.96 in 10.0 mi Variable 4.6 mph - N/A   Clear
11:54 AM 66.0 °F - 52.0 °F 60% 29.95 in 10.0 mi SW 5.8 mph - N/A   Clear
12:54 PM 69.1 °F - 50.0 °F 51% 29.92 in 10.0 mi SW 5.8 mph - N/A   Clear
1:54 PM 72.0 °F - 51.1 °F 48% 29.90 in 10.0 mi SW 9.2 mph - N/A   Clear
2:54 PM 73.0 °F - 51.1 °F 46% 29.87 in 10.0 mi South 6.9 mph - N/A   Clear
3:54 PM 75.0 °F - 51.1 °F 43% 29.83 in 10.0 mi South 12.7 mph 19.6 mph N/A   Clear
4:54 PM 73.9 °F - 50.0 °F 43% 29.80 in 10.0 mi SSW 9.2 mph - N/A   Clear
5:54 PM 73.9 °F - 52.0 °F 46% 29.79 in 10.0 mi South 9.2 mph - N/A   Clear
6:54 PM 73.0 °F - 52.0 °F 48% 29.79 in 10.0 mi South 15.0 mph 21.9 mph N/A   Clear
7:54 PM 70.0 °F - 54.0 °F 57% 29.79 in 10.0 mi South 9.2 mph 17.3 mph N/A   Clear
8:54 PM 68.0 °F - 54.0 °F 61% 29.79 in 10.0 mi South 8.1 mph - N/A   Clear
9:54 PM 66.9 °F - 53.1 °F 61% 29.80 in 10.0 mi South 9.2 mph - N/A   Clear
10:54 PM 64.0 °F - 53.1 °F 67% 29.79 in 10.0 mi South 8.1 mph - N/A   Clear
11:54 PM 63.0 °F - 53.1 °F 70% 29.80 in 10.0 mi South 6.9 mph - N/A   Clear